Flag for U.S.A. Weather past 2 weeks in Leesburg, Virginia, U.S.A.

Now
59 °F

Passing clouds.


Feels Like: 59 °F
Forecast: 58 / 74 °F
Wind: No wind

Location: Leesburg / Godfrey

Current Time: Oct 2, 2014 at 12:48:27 AM

Latest Report: Oct 2, 2014 at 12:15 AM


Visibility: 7 mi

Pressure: 30.08 "Hg

Humidity: 100%

Dew point: 59 °F

Location of LeesburgLocation

Historic Weather in Leesburg — Graph

°F

Leesburg temperature yesterday

Maximum temperature yesterday: 72 °F (at 3:15 PM)
Minimum temperature yesterday: 61 °F (at 9:55 PM)
Average temperature yesterday: 65 °F

Past Weeks' High & Low Weather Summary

 TemperatureHumidityPressure
High88 °F (Sep 21, 3:35 PM)100% (Sep 17, 12:35 AM)30.49 "Hg (Sep 17, 12:35 AM)
Low45 °F (Sep 23, 4:35 AM)39% (Sep 18, 4:55 PM)29.65 "Hg (Sep 21, 5:15 PM)
Average64 °F82%30.13 "Hg
* Reported Sep 16 11:15 PM — Oct 1 11:35 PM, Leesburg, Weather by CustomWeather, © 2014

Note: Actual official high and low records may vary slightly from our data, if they occured in-between our weather recording intervals... More about our weather records

Advertising

Leesburg weather history for previous 24 hours

 ConditionsComfort  
Time TempWeatherWind HumidityBarometerVisibility
11:35 PM
Oct 1
61 °FFog.3 mph100%30.08 "Hg4 mi
11:15 PM61 °FFog.No wind100%30.08 "Hg5 mi
10:55 PM61 °FFog.No wind100%30.08 "Hg5 mi
10:35 PM61 °FFog.No wind100%30.09 "Hg4 mi
10:15 PM63 °FPassing clouds.No wind100%30.08 "Hg7 mi
9:55 PM61 °FPassing clouds.No wind100%30.08 "Hg7 mi
9:35 PM63 °FClear.3 mph100%30.08 "Hg10 mi
9:15 PM63 °FClear.No wind100%30.07 "Hg10 mi
8:55 PM63 °FClear.No wind100%30.07 "Hg10 mi
8:35 PM63 °FClear.3 mph100%30.06 "Hg10 mi
8:15 PM64 °FClear.No wind94%30.06 "Hg10 mi
7:55 PM66 °FPassing clouds.3 mph94%30.05 "Hg10 mi
7:35 PM68 °FScattered clouds.No wind88%30.05 "Hg10 mi
7:15 PM68 °FSunny.3 mph83%30.04 "Hg10 mi
6:55 PM68 °FSunny.No wind83%30.04 "Hg10 mi
6:35 PM70 °FSunny.No wind78%30.03 "Hg10 mi
6:15 PM70 °FScattered clouds.No wind78%30.03 "Hg10 mi
5:55 PM72 °FScattered clouds.6 mph73%30.03 "Hg10 mi
5:35 PM72 °FScattered clouds.6 mph73%30.03 "Hg10 mi
5:15 PM72 °FScattered clouds.3 mph78%30.03 "Hg10 mi
4:55 PM70 °FScattered clouds.6 mph78%30.03 "Hg10 mi
4:35 PM72 °FPartly sunny.No wind73%30.03 "Hg10 mi
4:15 PM72 °FPartly sunny.6 mph73%30.03 "Hg10 mi
3:55 PM72 °FPartly sunny.5 mph73%30.03 "Hg10 mi
3:35 PM72 °FScattered clouds.No wind73%30.03 "Hg10 mi
3:15 PM72 °FBroken clouds.5 mph78%30.03 "Hg7 mi
2:55 PM70 °FMostly cloudy.5 mph83%30.04 "Hg10 mi
2:35 PM68 °FOvercast.No wind83%30.04 "Hg10 mi
2:15 PM70 °FPartly sunny.6 mph83%30.04 "Hg10 mi
1:55 PM70 °FBroken clouds.8 mph83%30.04 "Hg10 mi
1:35 PM68 °FMostly cloudy.6 mph88%30.05 "Hg10 mi
1:15 PM68 °FOvercast.7 mph88%30.06 "Hg10 mi
12:55 PM68 °FPartly sunny.8 mph88%30.06 "Hg10 mi
12:35 PM70 °FOvercast.7 mph83%30.06 "Hg10 mi
12:15 PM68 °FCloudy.3 mph88%30.06 "Hg10 mi
11:55 AM68 °FCloudy.No wind88%30.06 "Hg10 mi
11:35 AM66 °FMore clouds than sun.No wind94%30.06 "Hg7 mi
11:15 AM64 °FCloudy.No wind100%30.07 "Hg7 mi
10:55 AM64 °FMostly cloudy.No wind100%30.06 "Hg7 mi
10:35 AM64 °FFog.3 mph100%30.06 "Hg5 mi
10:15 AM64 °FMore clouds than sun.No wind100%30.06 "Hg7 mi
9:55 AM64 °FLow clouds.No wind100%30.06 "Hg7 mi
9:35 AM63 °FFog.No wind100%30.05 "Hg5 mi
9:15 AM63 °FFog.No wind100%30.05 "Hg5 mi
8:55 AM63 °FFog.3 mph100%30.04 "Hg4 mi
8:35 AM63 °FFog.3 mph100%30.03 "Hg3 mi
8:15 AM63 °FFog.5 mph100%30.02 "Hg2 mi
7:55 AM63 °FLight rain. Low clouds.5 mph100%30.01 "Hg2 mi
7:35 AM63 °FLight rain. Low clouds.3 mph100%30.01 "Hg2 mi
7:15 AM63 °FFog.6 mph100%30.00 "Hg3 mi
6:55 AM63 °FLight rain. Mostly cloudy.No wind100%30.00 "Hg3 mi
6:35 AM63 °FLight rain. Mostly cloudy.5 mph100%29.99 "Hg2 mi
6:15 AM63 °FLight rain. Overcast.No wind100%29.99 "Hg2 mi
5:55 AM63 °FFog.3 mph100%29.99 "Hg2 mi
5:35 AM63 °FLight rain. Low clouds.3 mph100%29.98 "Hg2 mi
5:15 AM63 °FLight rain. Mostly cloudy.5 mph100%29.98 "Hg2 mi
4:55 AM63 °FLight rain. Low clouds.No wind100%29.98 "Hg3 mi
4:35 AM63 °FFog.3 mph100%29.97 "Hg2 mi
4:15 AM63 °FLight rain. Low clouds.3 mph100%29.97 "Hg2 mi
3:55 AM63 °FFog.5 mph100%29.97 "Hg2 mi
3:35 AM63 °FFog.3 mph100%29.98 "Hg2 mi
3:15 AM63 °FFog.3 mph100%29.97 "Hg2 mi
2:55 AM63 °FFog.3 mph100%29.97 "Hg2 mi
2:35 AM63 °FFog.No wind100%29.98 "Hg1 mi
2:15 AM63 °FFog.No wind100%29.98 "Hg1 mi
1:55 AM63 °FFog.6 mph100%29.98 "Hg3 mi
1:35 AM63 °FPassing clouds.3 mph100%29.97 "Hg7 mi
1:15 AM63 °FPassing clouds.5 mph100%29.96 "Hg10 mi
12:55 AM63 °FOvercast.No wind100%29.97 "Hg10 mi
12:35 AM63 °FFog.7 mph100%29.97 "Hg5 mi
12:15 AM63 °FFog.No wind100%29.96 "Hg4 mi
Weather by CustomWeather, © 2014

See weather overviewHow to use our weather pages